Weather History for Cambridge, MD

Change the Weather History Date:

Wednesday, February 6, 2013

  Actual Average (KESN) Record (KESN)
Temperature  
Mean Temperature 36 °F -  
Max Temperature 44 °F 43 °F 60 °F (1960)
Min Temperature 28 °F 24 °F 5 °F (1966)
Degree Days  
Heating Degree Days 29    
Moisture  
Dew Point 30 °F    
Average Humidity 80    
Maximum Humidity 100    
Minimum Humidity 57    
Precipitation  
Precipitation 0.00 in - - ()
Sea Level Pressure  
Sea Level Pressure 30.16 in    
Wind  
Wind Speed 3 mph (NNW)    
Max Wind Speed 15 mph    
Max Gust Speed 18 mph    
Visibility 8 miles    
Events      
Averages and records for this station are not official NWS values.
T = Trace of Precipitation, MM = Missing Value Source: NWS Daily Summary

Daily Weather History Graph

Daily Weather History Graph

Search for Another Location

Airport:

Trip Planner

Search our weather history database for the weather conditions in past years. The results will help you decide how hot, cold, wet, or windy it might be!

Date:

Astronomy

Feb. 06, 2013 Rise Set
Actual Time 7:04 AM EST 5:32 PM EST
Civil Twilight 6:37 AM EST 5:59 PM EST
Nautical Twilight 6:05 AM EST 6:31 PM EST
Astronomical Twilight 5:34 AM EST 7:02 PM EST
Moon 3:44 AM EST (2/6) 1:49 PM EST (2/6)
Length of Visible Light 11h 22m
Length of Day
10h 27m
Waning Crescent, 17% of the Moon is Illuminated
Feb 6
Waning Crescent
Feb 10
New
Feb 17
First Quarter
Feb 25
Full
Mar 4
Last Quarter

Hourly Weather History & Observations

Time (EST) Temp. Windchill Dew Point Humidity Pressure Visibility Wind Dir Wind Speed Gust Speed Precip Events Conditions
12:16 AM 32.0 °F - 30.2 °F 93% 29.92 in 7.0 mi Calm Calm - N/A   Scattered Clouds
12:38 AM 32.0 °F - 30.2 °F 93% 29.93 in 7.0 mi Calm Calm - N/A   Clear
12:59 AM 32.0 °F 28.7 °F 30.2 °F 93% 29.94 in 5.0 mi NW 3.5 mph - N/A   Clear
1:20 AM 32.0 °F 25.6 °F 32.0 °F 100% 29.95 in 7.0 mi NNW 6.9 mph - N/A   Clear
1:42 AM 32.0 °F 28.7 °F 32.0 °F 100% 29.95 in 7.0 mi North 3.5 mph - N/A   Scattered Clouds
2:03 AM 32.0 °F - 32.0 °F 100% 29.95 in 5.0 mi Calm Calm - N/A   Scattered Clouds
2:24 AM 32.0 °F - 30.2 °F 93% 29.96 in 4.0 mi Calm Calm - N/A   Scattered Clouds
2:46 AM 32.0 °F - 32.0 °F 100% 29.96 in 3.0 mi Calm Calm - N/A   Overcast
3:07 AM 32.0 °F - 30.2 °F 93% 29.95 in 4.0 mi Calm Calm - N/A   Overcast
3:28 AM 32.0 °F - 30.2 °F 93% 29.95 in 3.0 mi Calm Calm - N/A   Scattered Clouds
3:50 AM 32.0 °F - 30.2 °F 93% 29.96 in 2.5 mi Calm Calm - N/A   Clear
4:11 AM 32.0 °F - 30.2 °F 93% 29.97 in 2.5 mi Calm Calm - N/A   Unknown
4:32 AM 30.2 °F - 30.2 °F 100% 29.97 in 3.0 mi Calm Calm - N/A   Unknown
4:54 AM 32.0 °F - 32.0 °F 100% 29.98 in 2.5 mi Calm Calm - N/A   Unknown
5:15 AM 28.4 °F - 28.4 °F 100% 29.99 in 4.0 mi Calm Calm - N/A   Clear
5:36 AM 30.2 °F - 30.2 °F 100% 30.02 in 3.0 mi Calm Calm - N/A   Unknown
5:58 AM 30.2 °F - 30.2 °F 100% 30.02 in 4.0 mi Calm Calm - N/A   Mostly Cloudy
6:19 AM 30.2 °F - 30.2 °F 100% 30.04 in 5.0 mi Calm Calm - N/A   Scattered Clouds
6:40 AM 30.2 °F - 30.2 °F 100% 30.06 in 4.0 mi Calm Calm - N/A   Scattered Clouds
7:02 AM 32.0 °F - 32.0 °F 100% 30.08 in 3.0 mi Calm Calm - N/A   Unknown
7:23 AM 32.0 °F - 32.0 °F 100% 30.08 in 2.0 mi Calm Calm - N/A   Unknown
7:44 AM 32.0 °F - 32.0 °F 100% 30.09 in 2.5 mi Calm Calm - N/A   Unknown
8:05 AM 32.0 °F - 30.2 °F 93% 30.10 in 2.5 mi Calm Calm - N/A   Unknown
8:27 AM 32.0 °F - 32.0 °F 100% 30.12 in 3.0 mi Calm Calm - N/A   Scattered Clouds
8:48 AM 35.6 °F - 33.8 °F 93% 30.13 in 4.0 mi Calm Calm - N/A   Clear
9:09 AM 37.4 °F 34.9 °F 35.6 °F 93% 30.14 in 5.0 mi NW 3.5 mph - N/A   Clear
9:30 AM 37.4 °F 32.1 °F 32.0 °F 81% 30.15 in 10.0 mi NNW 6.9 mph - N/A   Clear
9:52 AM 41.0 °F 38.0 °F 33.8 °F 76% 30.15 in 10.0 mi North 4.6 mph - N/A   Clear
10:13 AM 41.0 °F 35.8 °F 32.0 °F 70% 30.16 in 10.0 mi North 8.1 mph - N/A   Clear
10:59 AM 42.8 °F 38.6 °F 32.0 °F 66% 30.18 in 10.0 mi NNW 6.9 mph - N/A   Clear
11:20 AM 42.8 °F 36.6 °F 32.0 °F 66% 30.18 in 10.0 mi NNW 11.5 mph - N/A   Clear
11:41 AM 42.8 °F 36.6 °F 32.0 °F 66% 30.18 in 10.0 mi NNW 11.5 mph - N/A   Clear
12:03 PM 42.8 °F 37.0 °F 32.0 °F 66% 30.18 in 10.0 mi NW 10.4 mph 18.4 mph N/A   Clear
12:04 PM 42.8 °F 37.0 °F 32.0 °F 66% 30.19 in 10.0 mi NW 10.4 mph 18.4 mph N/A   Clear
12:18 PM 42.8 °F 36.2 °F 32.0 °F 66% 30.18 in 10.0 mi NNW 12.7 mph - N/A   Clear
12:38 PM 42.8 °F 37.0 °F 32.0 °F 66% 30.18 in 10.0 mi NNW 10.4 mph - N/A   Clear
12:58 PM 42.8 °F 36.6 °F 32.0 °F 66% 30.18 in 10.0 mi NNW 11.5 mph - N/A   Scattered Clouds
1:18 PM 44.6 °F 38.8 °F 32.0 °F 61% 30.18 in 10.0 mi NNW 11.5 mph 17.3 mph N/A   Scattered Clouds
1:38 PM 44.6 °F 38.8 °F 32.0 °F 61% 30.18 in 10.0 mi NNW 11.5 mph - N/A   Clear
1:58 PM 44.6 °F 39.2 °F 30.2 °F 57% 30.19 in 10.0 mi NNW 10.4 mph - N/A   Clear
2:18 PM 44.6 °F 38.4 °F 30.2 °F 57% 30.18 in 10.0 mi North 12.7 mph - N/A   Clear
2:38 PM 44.6 °F 38.8 °F 30.2 °F 57% 30.18 in 10.0 mi NNW 11.5 mph 18.4 mph N/A   Clear
2:58 PM 44.6 °F 39.2 °F 30.2 °F 57% 30.19 in 10.0 mi NNW 10.4 mph - N/A   Clear
3:18 PM 44.6 °F 39.7 °F 30.2 °F 57% 30.19 in 10.0 mi NNW 9.2 mph - N/A   Clear
3:39 PM 44.6 °F 38.4 °F 30.2 °F 57% 30.19 in 10.0 mi North 12.7 mph - N/A   Clear
3:59 PM 44.6 °F 38.8 °F 30.2 °F 57% 30.19 in 10.0 mi NNW 11.5 mph 16.1 mph N/A   Clear
4:19 PM 42.8 °F 36.6 °F 30.2 °F 61% 30.20 in 10.0 mi NNW 11.5 mph - N/A   Clear
4:39 PM 42.8 °F 35.4 °F 28.4 °F 57% 30.21 in 10.0 mi NNW 15.0 mph - N/A   Clear
4:59 PM 42.8 °F 38.0 °F 30.2 °F 61% 30.22 in 10.0 mi NNW 8.1 mph - N/A   Clear
5:19 PM 41.0 °F 37.1 °F 28.4 °F 61% 30.23 in 10.0 mi North 5.8 mph - N/A   Clear
5:39 PM 41.0 °F 37.1 °F 28.4 °F 61% 30.24 in 10.0 mi North 5.8 mph - N/A   Clear
5:59 PM 41.0 °F 36.4 °F 30.2 °F 65% 30.25 in 10.0 mi North 6.9 mph - N/A   Clear
6:19 PM 41.0 °F 38.0 °F 28.4 °F 61% 30.26 in 10.0 mi North 4.6 mph - N/A   Clear
6:39 PM 41.0 °F 36.4 °F 28.4 °F 61% 30.28 in 10.0 mi North 6.9 mph - N/A   Clear
6:59 PM 41.0 °F 36.4 °F 28.4 °F 61% 30.27 in 10.0 mi North 6.9 mph - N/A   Clear
7:19 PM 39.2 °F 33.6 °F 28.4 °F 65% 30.28 in 10.0 mi North 8.1 mph - N/A   Clear
7:59 PM 37.4 °F 32.8 °F 28.4 °F 70% 30.31 in 10.0 mi North 5.8 mph - N/A   Clear
8:19 PM 35.6 °F - 28.4 °F 75% 30.32 in 10.0 mi Calm Calm - N/A   Clear
8:39 PM 35.6 °F 30.7 °F 28.4 °F 75% 30.32 in 10.0 mi North 5.8 mph - N/A   Clear
8:59 PM 32.0 °F - 28.4 °F 87% 30.33 in 10.0 mi Calm Calm - N/A   Clear
9:19 PM 32.0 °F - 28.4 °F 87% 30.34 in 10.0 mi Calm Calm - N/A   Clear
9:39 PM 32.0 °F - 26.6 °F 80% 30.35 in 10.0 mi Calm Calm - N/A   Clear
9:59 PM 32.0 °F - 26.6 °F 80% 30.36 in 10.0 mi Calm Calm - N/A   Clear
10:19 PM 32.0 °F - 28.4 °F 87% 30.36 in 10.0 mi Calm Calm - N/A   Clear
10:39 PM 32.0 °F - 28.4 °F 87% 30.35 in 10.0 mi Calm Calm - N/A   Clear
10:59 PM 32.0 °F 28.7 °F 28.4 °F 87% 30.36 in 10.0 mi NNW 3.5 mph - N/A   Clear
11:19 PM 32.0 °F - 28.4 °F 87% 30.36 in 10.0 mi Calm Calm - N/A   Clear
11:39 PM 28.4 °F - 26.6 °F 93% 30.36 in 10.0 mi Calm Calm - N/A   Clear
11:59 PM 28.4 °F - 26.6 °F 93% 30.35 in 10.0 mi Calm Calm - N/A   Clear